Location: Area 52 Observatory
(34.2620°N, 119.2590°W)
Time: 20:22:19
(UTC-07:00)

OTV 5 (USA 277) - Visible Passes

Search period start: 16 October 2019 00:00
Search period end: 26 October 2019 00:00
Orbit: 310 x 324 km, 54.5° (Epoch: 08 October)

Date Brightness Start Highest point End Pass type
(mag) Time Alt. Az. Time Alt. Az. Time Alt. Az.
17 Oct ? 06:29:39 10° N 06:31:19 15° NE 06:32:59 10° ENE visible
20 Oct ? 05:39:44 18° N 05:40:48 23° NE 05:43:04 10° E visible
21 Oct ? 05:54:32 37° NNW 05:55:26 78° NE 05:58:08 10° SE visible
22 Oct ? 06:09:28 25° WSW 06:09:53 26° SW 06:12:13 10° S visible
25 Oct ? 19:59:29 10° SW 20:00:05 15° SW 20:00:05 15° SW visible
